SWR455 EDDN-YSSY

Flight info

Callsign SWR455
Flight time N/A
Altitude 35000
Route RODIS1G RODIS L604 RUDNO T203 TIVDA T703 BEPAS DCT BILNA DCT KEKED DCT MALBE/K0895F350 M991 TAKET T254 REPLI/K0898F370 M991 OLGIN B494 MKL B491 BISNA/N0485F370 M23 MARAL B450 BIBIM A909 LEMOD/N0483F390 N644 REGET J145 DI A466 JHANG M875 KAKID M770 DABEN/N0483F410 M770 OBMOG L515 PUT B579 VPL W531 VIH A464 VKL Y507 MAKNA Y511 TOPOR A464 ARAMA P501 ANITO B470 PKP L511 SBR M766 BLI M635 ATMAP A576 KADOM
Aircraft A359/H-SDE2E3GHIJ3J4J5LM1ORWXY/LB1D1

Departure

Time 2026-05-03 20:54
Airport Nuremberg Airport (EDDN)

Arrival

Time N/A
Airport Sydney Kingsford Smith International Airport (YSSY)
Time Latitude Longitude Altitude Speed Heading
2026-05-03 20:34 49.49558 11.08505 1040 ft 0 kts
2026-05-03 20:50 49.49584 11.08525 1041 ft 10 kts 47°
2026-05-03 20:51 49.49587 11.08698 1043 ft 25 kts 97°
2026-05-03 20:51 49.49563 11.08960 1045 ft 24 kts 99°
2026-05-03 20:51 49.49537 11.09203 1049 ft 22 kts 99°
2026-05-03 20:51 49.49550 11.09403 1053 ft 16 kts 54°
2026-05-03 20:52 49.49609 11.09526 1056 ft 13 kts 45°
2026-05-03 20:52 49.49677 11.09565 1058 ft 7 kts 352°
2026-05-03 20:52 49.49693 11.09534 1058 ft 0 kts 289°
2026-05-03 20:53 49.49715 11.09390 1056 ft 46 kts 278°
2026-05-03 20:53 49.49801 11.08534 1043 ft 114 kts 278°
2026-05-03 20:53 49.49952 11.07001 1027 ft 173 kts 278°
2026-05-03 20:54 49.50142 11.05079 1587 ft 181 kts 277°
2026-05-03 20:54 49.50464 11.01371 3255 ft 182 kts 279°
2026-05-03 20:54 49.50647 10.99369 3465 ft 196 kts 279°
2026-05-03 20:55 49.50849 10.97213 3627 ft 211 kts 279°
2026-05-03 20:55 49.51197 10.94930 3708 ft 229 kts 293°
2026-05-03 20:55 49.52229 10.93000 3812 ft 245 kts 326°
2026-05-03 20:55 49.53873 10.92270 4196 ft 253 kts 354°
2026-05-03 20:56 49.55630 10.92278 4690 ft 257 kts 358°
2026-05-03 20:56 49.57440 10.92373 5128 ft 263 kts 358°
2026-05-03 20:56 49.59287 10.92458 5546 ft 268 kts 358°
2026-05-03 20:56 49.61173 10.92529 5986 ft 274 kts 358°
2026-05-03 20:57 49.63108 10.92593 6438 ft 280 kts 358°
2026-05-03 20:57 49.65070 10.92650 6903 ft 284 kts 358°
2026-05-03 20:57 49.67060 10.92956 7331 ft 292 kts 12°